STARLINK-1784 (46687 NORAD) Tracking and Keplerian Element Data
This shows tracking and keplerian element data for the satellite.
Feedback or suggestion? Click here.
Element | Value |
Catalog | 46687 |
Name | STARLINK-1784 |
Epoch Orbit | 1481 |
Epoch Day | 17.91667824 |
Epoch Year | 2021 |
RAAN | 21.1454 |
Inclination | 53.0549 |
Eccentricity | 0.0005485 |
Argument of Perigee | 326.4448 |
Mean Anonmoly | 87.7482 |
Mean Motion | 15.59180012 |
Decay Rate | -0.01121424 |
L1 | 1 46687U 20073T 21017.91667824 -.01121424 00000-0 -15500-1 0 9996 |
L2 | 2 46687 53.0549 21.1454 0005485 326.4448 87.7482 15.59180012 14811 |
Live tracking and technical data element details for STARLINK-1784 (NORAD 46687). STARLINK-1784 can be tracked NOW for your location showing map with azimuth and elevation plus other details from your city location.
Track the satellite on the map from your city or location and see movement details for azimuth, elevation, latitude, longitude, range, height, and movement on the map or in text.
IsCatalogInMostPopularTable: catalog: 46687, numindb: 32
Update: records affected: 1
GetName: 46687 STARLINK-1784
Hit Count: updated at: Tue, 19 Jan 2021 01:36:46 GMT